Wind_Speed
28 28 27 25 23 20 17 15 15 14 17 20 17 16 16 15 15 17 16 15 13 12 12 12 12 11 11 11 11 10 10 10 10 10 11 11 12 12 11 11 11 12 12 12
29 28 25 25 25 23 22 21 17 17 20 22 20 18 18 18 17 17 16 16 15 14 13 13 12 11 12 12 12 11 10 10 11 11 11 11 11 12 12 12 12 12 12 13
28 25 26 27 26 26 25 23 19 19 21 22 20 19 20 21 19 20 18 18 17 15 13 14 13 12 12 12 11 11 10 11 11 11 11 12 12 12 13 13 13 14 14 15
29 27 28 28 28 27 26 24 21 21 22 21 20 19 21 22 21 20 20 19 17 17 15 14 14 14 12 11 11 11 11 11 11 10 11 11 12 13 14 15 15 15 15 15
30 29 29 29 28 27 25 23 23 24 24 22 20 20 21 23 23 21 19 17 17 18 17 15 15 14 14 12 12 12 13 13 12 12 12 13 13 14 14 14 15 15 16 16
29 30 30 29 28 28 27 25 25 25 24 25 22 21 23 24 21 20 18 17 17 18 17 16 15 15 15 14 14 14 14 14 14 13 14 14 14 15 15 15 15 15 16 16
30 30 30 30 29 29 29 27 26 25 25 24 22 23 24 23 21 18 17 18 17 18 17 17 16 16 15 15 15 15 14 15 15 15 15 15 15 15 15 15 16 16 16 16
29 29 29 29 29 29 29 28 25 23 21 21 21 24 24 22 21 19 18 18 18 18 18 17 17 16 16 16 15 15 15 14 14 15 15 15 16 16 15 15 15 16 16 17
24 24 26 27 26 28 29 28 24 21 18 17 19 20 23 24 23 22 21 20 18 18 17 17 16 15 15 15 15 15 15 15 15 15 16 16 17 16 16 15 15 15 15 16
23 22 24 25 27 29 28 27 27 26 24 22 21 23 24 23 23 23 22 20 19 18 17 17 17 16 15 15 15 15 15 15 15 16 16 16 17 16 16 16 15 15 15 15
25 23 23 26 28 28 28 29 29 27 26 22 20 21 22 21 21 20 19 18 18 18 17 17 16 16 16 15 15 16 16 16 16 16 16 16 16 16 17 16 16 15 15 16
26 24 24 25 25 25 27 28 30 29 28 25 22 19 19 21 20 18 17 17 18 18 17 16 16 15 15 15 15 16 16 16 16 15 15 16 17 17 17 17 16 15 15 16
28 27 26 25 25 26 28 29 30 30 28 26 23 20 19 20 18 18 16 17 18 17 16 15 14 14 15 15 16 16 16 16 16 16 16 16 16 16 16 16 15 15 14 15
30 31 28 25 25 25 27 29 29 30 29 27 25 23 22 20 18 18 16 17 18 17 17 16 16 15 15 16 16 15 15 15 16 17 17 17 16 16 15 15 15 15 15 15
30 31 30 28 25 23 26 28 30 30 28 26 24 25 25 21 20 19 17 17 18 17 17 16 16 15 15 16 16 16 15 15 16 17 17 17 16 15 15 15 15 15 15 15
30 30 30 29 27 25 24 25 27 28 28 28 28 25 23 24 22 21 19 19 19 18 17 16 16 16 16 16 16 17 16 16 16 17 17 17 17 16 15 15 15 15 15 15
29 29 30 30 29 27 27 27 27 27 28 29 29 26 24 25 23 22 21 21 19 18 18 17 17 16 16 16 17 17 17 17 17 18 18 17 17 17 17 17 16 17 17 17
28 29 29 28 28 29 27 26 27 27 29 30 30 29 29 28 26 25 22 21 20 19 19 18 17 16 16 16 17 17 18 18 19 19 18 18 18 18 18 18 18 19 18 18
29 28 29 27 26 26 26 28 30 31 30 30 32 32 29 28 28 26 23 21 20 20 19 18 17 17 17 17 18 18 19 19 19 19 19 19 19 19 18 19 19 20 19 19
30 29 29 29 28 28 27 28 29 29 30 31 32 30 29 28 27 24 23 22 20 20 20 20 19 18 19 19 19 19 19 20 20 19 19 19 19 19 19 19 20 20 20 20
31 31 31 30 29 28 28 28 28 30 30 29 28 28 28 27 25 23 22 22 21 21 21 20 20 20 20 20 20 20 20 20 20 19 19 20 20 20 20 21 21 21 21 21
31 31 31 32 31 30 29 28 30 30 28 28 28 28 28 26 25 24 23 23 22 21 21 22 22 22 22 21 21 21 21 20 20 20 20 20 20 21 20 21 21 21 20 21
32 34 33 34 33 30 29 28 29 28 28 27 27 27 27 26 25 24 24 24 22 21 22 22 22 22 22 21 22 21 21 21 21 21 21 21 21 21 21 21 21 21 21 22
31 34 35 33 32 30 28 25 26 27 28 27 27 26 25 25 26 26 26 25 24 22 22 22 22 22 22 22 22 21 21 21 22 22 21 21 21 22 22 22 23 23 23 23
30 33 34 32 32 32 29 27 26 26 26 27 27 27 26 27 27 26 26 25 24 23 23 23 22 22 22 22 22 22 21 21 21 21 22 22 22 22 23 23 24 23 24 25
33 31 30 32 31 28 28 28 26 26 26 26 26 26 27 27 26 26 26 25 24 23 23 23 22 21 21 21 22 21 21 21 22 23 23 23 23 24 24 24 23 24 24 25
Wind_Direction
235 235 233 233 232 226 217 227 235 232 237 247 248 241 242 243 250 255 261 269 269 279 287 292 294 294 296 296 297 295 284 277 269 264 261 259 260 260 261 260 261 261 263 262
234 234 231 229 226 222 215 219 221 227 233 242 247 241 240 242 246 255 257 265 273 276 283 288 285 288 292 292 289 288 285 275 273 270 266 262 261 261 262 261 260 261 264 262
234 231 228 227 223 221 220 219 216 222 235 242 245 241 239 243 242 251 257 259 266 272 277 283 281 287 289 288 282 282 280 272 272 269 268 267 264 264 265 266 262 262 263 263
228 225 226 226 225 223 223 219 216 220 232 240 241 241 244 243 242 249 259 260 259 268 272 279 283 285 288 285 280 278 276 276 276 272 273 272 269 273 273 268 265 266 266 265
227 225 226 226 224 223 222 220 218 221 228 234 239 242 248 250 247 247 253 259 264 269 273 276 279 281 283 284 278 275 274 276 276 275 275 276 274 275 278 274 269 266 266 268
225 226 226 226 223 221 218 218 222 223 226 232 231 236 245 251 251 244 248 255 260 264 269 271 273 278 281 281 276 271 273 275 274 275 275 277 277 276 278 276 272 266 266 266
224 224 226 226 221 221 218 217 221 225 227 233 234 237 244 249 252 251 250 258 263 263 265 268 270 273 277 280 275 270 271 274 272 274 277 278 278 276 278 280 275 267 265 265
226 224 226 227 223 222 220 217 219 224 231 236 237 238 243 248 254 259 255 261 263 262 265 266 268 271 273 276 273 267 269 272 272 274 275 277 279 279 278 278 276 268 264 263
223 227 229 229 222 217 218 216 215 219 221 233 238 239 241 245 255 258 260 262 260 258 259 263 265 268 271 272 271 267 268 269 271 273 274 275 276 277 277 278 276 270 264 264
213 219 224 226 219 216 216 215 208 213 221 225 230 237 237 243 252 257 261 260 257 254 255 257 261 265 269 270 269 268 268 268 269 270 272 271 273 273 275 276 274 272 265 264
205 210 218 225 221 216 213 211 209 215 223 228 234 242 242 242 251 257 258 256 253 252 254 256 261 264 269 270 268 269 268 269 272 273 272 271 273 273 272 272 270 268 267 266
203 206 214 224 224 217 215 213 211 213 220 226 235 238 242 243 246 247 250 252 253 254 251 255 259 263 267 268 269 268 268 269 271 272 273 273 273 274 272 269 267 265 265 266
204 205 209 216 220 215 213 211 211 214 218 220 232 245 244 245 245 247 247 251 249 249 253 257 259 263 266 267 268 270 270 269 268 269 272 274 276 275 272 267 263 262 262 263
206 207 205 210 219 217 214 212 212 214 216 220 226 242 247 241 241 249 251 251 250 251 256 258 258 264 267 268 270 272 270 268 267 269 271 274 276 274 271 264 259 260 263 263
207 208 204 203 209 218 219 213 211 212 215 220 225 238 249 242 246 250 247 251 252 253 253 255 259 266 269 267 267 268 269 269 268 269 271 272 273 273 270 264 260 261 264 264
206 204 202 204 206 207 214 215 211 211 214 218 223 228 243 249 252 252 248 249 250 251 252 254 258 264 267 268 268 267 268 269 271 273 272 270 272 271 268 264 264 266 266 266
206 203 201 203 205 206 210 212 213 213 214 218 226 227 232 245 247 244 242 248 250 249 251 254 259 263 267 268 268 266 266 269 274 276 275 272 270 269 268 266 267 269 268 267
206 203 204 204 206 211 210 211 213 214 218 219 222 226 232 236 241 245 243 244 247 248 248 252 258 263 265 267 269 270 270 272 274 276 276 273 271 269 269 268 267 269 269 269
207 207 206 207 209 213 211 210 211 215 217 221 225 227 231 236 238 241 241 244 248 249 250 254 258 263 267 270 272 274 273 273 274 276 276 275 274 271 270 270 270 269 270 271
210 209 207 209 210 214 214 212 214 216 219 220 225 229 231 233 233 238 243 246 247 248 250 254 258 264 270 272 275 277 276 274 274 275 275 276 275 273 271 271 272 271 271 272
209 210 209 210 212 215 217 214 216 222 225 224 225 227 233 237 236 239 242 246 247 248 250 255 260 264 269 272 274 277 277 275 274 274 275 275 274 273 271 269 271 273 272 271
212 209 211 212 214 217 216 217 215 219 224 226 227 228 232 235 236 238 241 245 248 250 253 257 261 264 268 271 273 275 274 273 273 273 274 274 274 273 272 272 273 273 273 274
210 210 212 215 218 218 219 221 221 222 223 227 228 229 230 231 235 238 241 244 248 250 255 259 263 265 268 271 273 272 272 272 271 272 273 274 275 275 275 274 275 275 276 278
208 209 213 217 220 220 220 220 222 224 223 226 228 229 229 231 234 238 242 246 249 253 256 260 265 267 269 271 273 273 272 272 272 270 271 274 276 276 277 276 275 274 274 276
210 214 216 219 222 223 224 221 223 225 226 226 226 229 230 233 234 238 243 246 251 254 258 262 265 268 269 270 272 273 273 274 274 273 273 275 277 278 279 277 277 276 275 276
220 220 220 221 220 222 223 225 227 228 229 229 229 231 232 233 235 239 243 246 249 255 259 261 265 268 271 272 272 273 275 276 276 276 274 274 275 275 276 277 277 276 276 277
Height
5840 5845 5848 5853 5857 5862 5866 5870 5873 5876 5878 5877 5878 5879 5879 5879 5880 5879 5879 5879 5878 5879 5880 5880 5879 5879 5879 5879 5879 5879 5880 5880 5881 5882 5883 5884 5885 5886 5887 5888 5889 5889 5890 5891
5835 5839 5845 5848 5852 5856 5860 5865 5870 5874 5874 5874 5875 5876 5877 5876 5877 5876 5877 5877 5876 5877 5878 5877 5877 5877 5877 5877 5877 5877 5878 5879 5879 5880 5880 5882 5883 5884 5885 5886 5887 5887 5888 5889
5829 5836 5839 5843 5847 5851 5855 5860 5866 5870 5870 5870 5872 5873 5873 5873 5875 5875 5875 5875 5875 5875 5876 5875 5873 5874 5875 5875 5875 5875 5876 5876 5877 5878 5879 5880 5881 5882 5882 5883 5883 5884 5885 5886
5823 5829 5833 5837 5842 5846 5851 5856 5861 5864 5865 5866 5868 5869 5870 5869 5871 5872 5872 5871 5871 5872 5873 5872 5872 5872 5872 5872 5873 5873 5874 5875 5875 5876 5876 5877 5878 5879 5879 5880 5880 5881 5882 5883
5818 5823 5827 5832 5837 5842 5847 5851 5855 5858 5861 5862 5864 5865 5867 5864 5865 5866 5867 5868 5868 5869 5870 5870 5870 5870 5869 5869 5870 5871 5872 5872 5873 5873 5874 5875 5875 5876 5876 5876 5877 5878 5879 5879
5813 5818 5822 5827 5832 5836 5841 5846 5849 5852 5855 5856 5859 5861 5861 5859 5859 5860 5862 5865 5867 5867 5867 5867 5868 5867 5866 5867 5868 5869 5870 5870 5870 5871 5871 5872 5872 5873 5873 5873 5874 5874 5875 5876
5807 5812 5816 5821 5826 5831 5835 5841 5844 5847 5849 5851 5855 5857 5857 5856 5855 5855 5858 5861 5863 5864 5864 5864 5864 5865 5865 5865 5866 5866 5867 5867 5868 5868 5868 5869 5869 5869 5870 5870 5870 5871 5872 5873
5802 5807 5811 5815 5821 5825 5830 5835 5841 5844 5847 5849 5851 5852 5854 5853 5853 5854 5856 5858 5860 5861 5861 5861 5861 5862 5862 5862 5862 5863 5864 5864 5864 5865 5865 5865 5866 5866 5866 5866 5866 5867 5868 5869
5798 5803 5807 5810 5816 5821 5825 5830 5837 5841 5844 5846 5847 5848 5848 5849 5850 5852 5853 5855 5856 5857 5858 5858 5858 5859 5859 5859 5860 5860 5861 5861 5861 5862 5862 5862 5862 5863 5863 5863 5863 5863 5864 5865
5794 5799 5803 5806 5810 5815 5821 5826 5832 5835 5838 5840 5843 5842 5843 5845 5847 5848 5850 5851 5852 5853 5854 5855 5855 5856 5856 5857 5857 5857 5857 5858 5858 5858 5859 5859 5859 5859 5859 5860 5860 5860 5861 5862
5789 5794 5799 5802 5805 5811 5816 5821 5826 5830 5834 5836 5837 5840 5838 5840 5842 5844 5846 5848 5849 5850 5850 5851 5852 5852 5853 5853 5854 5854 5854 5855 5855 5855 5855 5856 5856 5856 5856 5856 5856 5857 5857 5858
5783 5789 5794 5798 5802 5807 5811 5816 5821 5825 5828 5831 5833 5836 5833 5836 5837 5838 5842 5844 5845 5846 5846 5848 5849 5849 5850 5850 5850 5851 5851 5851 5851 5852 5852 5852 5853 5852 5852 5852 5853 5853 5854 5855
5778 5783 5789 5793 5798 5801 5805 5810 5815 5820 5824 5827 5830 5833 5829 5833 5833 5834 5838 5841 5842 5842 5842 5844 5846 5846 5847 5847 5846 5846 5847 5847 5848 5849 5849 5849 5849 5849 5848 5848 5849 5849 5850 5851
5772 5777 5783 5789 5793 5797 5800 5805 5810 5815 5818 5823 5826 5827 5826 5827 5829 5831 5834 5836 5837 5839 5840 5842 5843 5843 5844 5844 5843 5843 5844 5844 5845 5845 5845 5845 5845 5845 5845 5844 5845 5846 5846 5847
5766 5772 5777 5782 5788 5792 5796 5800 5805 5809 5814 5819 5822 5823 5822 5823 5827 5828 5830 5832 5834 5836 5837 5838 5839 5840 5840 5840 5841 5841 5841 5841 5841 5842 5842 5842 5842 5841 5841 5841 5841 5842 5843 5843
5761 5767 5772 5777 5782 5787 5791 5795 5800 5804 5810 5813 5815 5817 5820 5820 5822 5824 5826 5829 5831 5832 5834 5835 5836 5837 5837 5837 5837 5837 5837 5838 5838 5838 5838 5838 5838 5838 5838 5838 5838 5838 5839 5839
5757 5762 5767 5772 5777 5781 5785 5791 5795 5799 5804 5808 5810 5814 5816 5815 5817 5820 5822 5824 5826 5828 5830 5831 5832 5833 5833 5833 5833 5834 5834 5834 5834 5834 5834 5834 5834 5834 5834 5834 5835 5835 5835 5836
5753 5758 5763 5767 5772 5775 5783 5787 5791 5794 5797 5801 5805 5807 5810 5811 5814 5816 5818 5820 5823 5825 5826 5827 5828 5829 5829 5829 5830 5830 5830 5830 5830 5830 5830 5830 5830 5830 5830 5831 5831 5831 5831 5831
5748 5754 5758 5763 5766 5771 5777 5781 5784 5788 5792 5795 5798 5801 5804 5806 5809 5811 5813 5816 5819 5821 5822 5823 5825 5825 5826 5826 5826 5826 5826 5826 5826 5826 5826 5826 5826 5826 5826 5826 5827 5827 5827 5827
5744 5748 5753 5758 5762 5766 5770 5774 5778 5783 5786 5789 5791 5795 5798 5800 5804 5808 5810 5813 5815 5816 5818 5819 5821 5821 5822 5822 5822 5822 5821 5821 5821 5821 5821 5821 5821 5821 5821 5822 5822 5822 5822 5822
5739 5743 5747 5752 5756 5760 5764 5768 5773 5778 5780 5783 5786 5790 5792 5795 5799 5803 5805 5808 5810 5812 5813 5815 5816 5817 5817 5818 5818 5817 5817 5817 5817 5817 5816 5816 5816 5816 5816 5817 5817 5817 5817 5817
5733 5739 5743 5747 5750 5756 5759 5763 5766 5770 5775 5777 5781 5786 5789 5791 5794 5798 5800 5803 5805 5807 5809 5810 5811 5812 5812 5813 5813 5812 5812 5812 5812 5812 5811 5811 5811 5811 5811 5811 5811 5811 5812 5812
5727 5732 5737 5741 5746 5749 5753 5756 5760 5765 5770 5773 5776 5779 5783 5787 5790 5793 5796 5798 5801 5802 5804 5805 5806 5806 5807 5807 5807 5807 5807 5807 5807 5807 5806 5806 5806 5806 5806 5806 5806 5806 5806 5806
5721 5726 5731 5736 5740 5744 5748 5752 5756 5760 5765 5768 5772 5775 5778 5782 5785 5788 5791 5794 5796 5797 5799 5800 5801 5801 5801 5802 5802 5802 5802 5802 5801 5801 5801 5801 5801 5800 5800 5800 5800 5800 5800 5799
5715 5720 5725 5731 5736 5739 5743 5748 5752 5756 5759 5763 5767 5770 5773 5777 5780 5784 5786 5789 5791 5792 5793 5794 5795 5796 5796 5796 5796 5796 5796 5796 5796 5796 5796 5795 5795 5795 5794 5794 5793 5793 5793 5793
5711 5715 5720 5725 5730 5734 5738 5744 5748 5752 5755 5759 5762 5765 5769 5772 5775 5778 5781 5783 5785 5787 5788 5789 5790 5790 5791 5791 5791 5791 5790 5790 5790 5790 5790 5789 5789 5788 5788 5787 5787 5786 5786 5785